Regional Weather Roundup
Issued by NWS Sioux Falls, SD

Home | Current Version | Previous Version | Graphics & Text | Print | Product List | Glossary Off
Versions: 1 2 3 4 5 6 7 8 9 10 11 12 13 14 15 16 17 18 19 20 21 22 23 24 25 26 27 28 29 30 31 32 33 34 35 36 37 38 39 40 41 42 43 44 45 46 47 48 49 50

000
ASUS43 KFSD 180310
RWRFSD

WEATHER ROUNDUP FOR SE SOUTH DAKOTA/SW MINNESOTA/NW IOWA
NATIONAL WEATHER SERVICE SIOUX FALLS SD
1000 PM CDT THU APR 17 2014

NOTE: "FAIR" INDICATES FEW OR NO CLOUDS BELOW 12,000 FEET WITH NO
SIGNIFICANT WEATHER AND OR OBSTRUCTIONS TO VISIBILITY.


SDZ038>040-050-052>070-180400-
SOUTHEAST SOUTH DAKOTA

CITY           SKY/WX    TMP DP  RH WIND       PRES   REMARKS
CHAMBERLAIN      N/A     38  27  64 SE13      30.16S
HURON          CLOUDY    40  27  59 SE9       30.22S
MADISON        CLOUDY    36  19  51 E10       30.26R
MITCHELL       MOCLDY    42  24  49 SE13      30.23S
SIOUX FALLS    CLOUDY    38  25  59 E8        30.27R
WINNER         FAIR      37  25  61 SE16      30.12R
YANKTON        PTCLDY    41  25  52 NE9       30.25S
$$

MNZ071-072-080-081-089-090-097-098-180400-
SOUTHWEST MINNESOTA

CITY           SKY/WX    TMP DP  RH WIND       PRES   REMARKS
FAIRMONT       PTCLDY    36  28  75 N3        30.32S
JACKSON        PTCLDY    32  28  86 NE7       30.30R WCI  26
LUVERNE        MOCLDY    36  28  75 NE5       30.29R
MARSHALL       PTCLDY    30  21  69 CALM      30.30S
MONTEVIDEO     CLEAR     30  21  69 W3        30.31S
PIPESTONE      CLOUDY    34  25  69 E6        30.27S WCI  29
REDWOOD FALLS  CLEAR     33  26  75 CALM      30.31R
TRACY          PTCLDY    32  26  81 CALM      30.31R
WINDOM         PTCLDY    30  27  86 N5        30.30S WCI  25
WORTHINGTON    PTCLDY    32  21  64 NE8       30.30R WCI  25
$$

IAZ001>003-012>014-020>022-031-032-NEZ013-014-SDZ071-180400-
NORTHWEST IOWA

CITY           SKY/WX    TMP DP  RH WIND       PRES   REMARKS
CHEROKEE       PTCLDY    40  28  62 NE6       30.28R
DENISON        MOCLDY    39  27  60 SE6       30.26R
ESTHERVILLE    MOCLDY    32  29  88 NE6       30.29R WCI  26
LE MARS        CLOUDY    45  27  49 E6        30.27S
ORANGE CITY    MOCLDY    43  28  56 E6        30.27S
SHELDON        CLOUDY    34  28  80 NE8       30.27R WCI  27
SIOUX CITY     MOCLDY    46  24  42 E5        30.26R
SPENCER        PTCLDY    35  28  75 E7        30.29R WCI  29
STORM LAKE     CLEAR     39  28  65 E12       30.28R
$$

ABBREVIATIONS USED IN REMARKS
   TC - TEMPERATURE IN CELSIUS
  WCI - WIND CHILL INDEX
   HX - HEAT INDEX
  VSB - VISIBILITY




USA.gov is the U.S. government's official web portal to all federal, state and local government web resources and services.